BAW890 EGLL-UGTB

Flight info

Callsign BAW890
Flight time N/A
Altitude 37000
Route DET L6 DVR UL9 KONAN DCT KOK DCT MATUG DCT AMASI DCT BOMBI DCT TENLO DCT DEXIT DCT PESAT DCT DEGET DCT UDROS UN743 GAKSU UT310 SIN UN644 ROLIN N644 LAGAS
Aircraft A20N/M-SDE2E3FGHIJ1RWXY/LB1

Departure

Time N/A
Airport London Heathrow Airport (EGLL)

Arrival

Time 2026-04-24 12:36
Airport Tbilisi International Airport (UGTB)
Time Latitude Longitude Altitude Speed Heading
2026-04-24 12:10 41.77696 41.10169 37015 ft 502 kts 97°
2026-04-24 12:10 41.77465 41.14669 37013 ft 502 kts 97°
2026-04-24 12:11 41.71805 42.15239 37046 ft 504 kts 97°
2026-04-24 12:11 41.71231 42.24398 36973 ft 504 kts 98°
2026-04-24 12:12 41.70651 42.33551 36956 ft 504 kts 97°
2026-04-24 12:12 41.70085 42.42521 36845 ft 504 kts 98°
2026-04-24 12:12 41.69809 42.46862 36640 ft 503 kts 98°
2026-04-24 12:13 41.69520 42.51409 36308 ft 503 kts 98°
2026-04-24 12:13 41.69225 42.56015 35801 ft 506 kts 98°
2026-04-24 12:13 41.68925 42.60649 35217 ft 510 kts 99°
2026-04-24 12:13 41.68629 42.65207 34599 ft 515 kts 99°
2026-04-24 12:14 41.68325 42.69838 33878 ft 519 kts 99°
2026-04-24 12:14 41.68012 42.74539 33195 ft 521 kts 100°
2026-04-24 12:14 41.67699 42.79249 32536 ft 522 kts 99°
2026-04-24 12:14 41.67380 42.83954 31860 ft 523 kts 100°
2026-04-24 12:15 41.67066 42.88640 31198 ft 523 kts 100°
2026-04-24 12:15 41.66742 42.93406 30490 ft 523 kts 99°
2026-04-24 12:15 41.66416 42.98172 29739 ft 522 kts 100°
2026-04-24 12:15 41.66095 43.02835 29025 ft 520 kts 99°
2026-04-24 12:16 41.65769 43.07574 28287 ft 519 kts 100°
2026-04-24 12:16 41.65439 43.12324 27517 ft 517 kts 99°
2026-04-24 12:16 41.65111 43.16947 26755 ft 516 kts 99°
2026-04-24 12:16 41.64789 43.21512 26025 ft 515 kts 99°
2026-04-24 12:17 41.64484 43.25858 25548 ft 508 kts 99°
2026-04-24 12:17 41.64160 43.30448 25035 ft 502 kts 99°
2026-04-24 12:17 41.63845 43.34849 24542 ft 496 kts 99°
2026-04-24 12:17 41.63525 43.39283 24039 ft 490 kts 99°
2026-04-24 12:18 41.63200 43.43727 23562 ft 485 kts 99°
2026-04-24 12:18 41.62880 43.48139 23048 ft 480 kts 99°
2026-04-24 12:18 41.62561 43.52513 22550 ft 476 kts 99°
2026-04-24 12:18 41.62244 43.56844 22042 ft 472 kts 99°
2026-04-24 12:19 41.61926 43.61185 21535 ft 467 kts 99°
2026-04-24 12:19 41.61615 43.65421 21065 ft 463 kts 100°
2026-04-24 12:19 41.61302 43.69681 20554 ft 459 kts 100°
2026-04-24 12:19 41.60994 43.73803 20047 ft 455 kts 100°
2026-04-24 12:20 41.60680 43.77962 19558 ft 450 kts 100°
2026-04-24 12:20 41.60372 43.82061 19066 ft 446 kts 100°
2026-04-24 12:20 41.60062 43.86130 18570 ft 442 kts 100°
2026-04-24 12:20 41.59754 43.90184 18084 ft 438 kts 100°
2026-04-24 12:21 41.59445 43.94222 17580 ft 434 kts 100°
2026-04-24 12:21 41.59143 43.98148 17096 ft 430 kts 100°
2026-04-24 12:21 41.58839 44.02080 16603 ft 426 kts 100°
2026-04-24 12:21 41.58538 44.05954 16117 ft 422 kts 100°
2026-04-24 12:22 41.58241 44.09771 15655 ft 418 kts 100°
2026-04-24 12:22 41.57941 44.13608 15163 ft 415 kts 100°
2026-04-24 12:22 41.57642 44.17415 14685 ft 410 kts 99°
2026-04-24 12:22 41.57346 44.21162 14224 ft 406 kts 99°
2026-04-24 12:23 41.56978 44.24844 13725 ft 400 kts 104°
2026-04-24 12:23 41.56519 44.28461 13274 ft 396 kts 104°
2026-04-24 12:23 41.56035 44.32083 12793 ft 393 kts 103°
2026-04-24 12:23 41.55561 44.35627 12314 ft 391 kts 103°
2026-04-24 12:24 41.55088 44.39179 11824 ft 389 kts 103°
2026-04-24 12:24 41.54623 44.42698 11336 ft 387 kts 102°
2026-04-24 12:24 41.54162 44.46213 10827 ft 385 kts 102°
2026-04-24 12:24 41.53704 44.49697 10592 ft 374 kts 101°
2026-04-24 12:25 41.53276 44.52994 10423 ft 361 kts 102°
2026-04-24 12:25 41.52849 44.56274 10274 ft 348 kts 102°
2026-04-24 12:25 41.52439 44.59385 10132 ft 336 kts 102°
2026-04-24 12:25 41.52043 44.62382 10007 ft 324 kts 102°
2026-04-24 12:26 41.51658 44.65279 9795 ft 317 kts 102°
2026-04-24 12:26 41.51271 44.68167 9420 ft 315 kts 102°
2026-04-24 12:26 41.50891 44.71003 9094 ft 312 kts 102°
2026-04-24 12:26 41.50517 44.73775 8791 ft 308 kts 101°
2026-04-24 12:27 41.50140 44.76564 8455 ft 304 kts 101°
2026-04-24 12:27 41.49768 44.79328 8143 ft 301 kts 101°
2026-04-24 12:27 41.49405 44.82018 7823 ft 297 kts 100°
2026-04-24 12:27 41.49038 44.84726 7515 ft 292 kts 99°
2026-04-24 12:28 41.48685 44.87320 7210 ft 288 kts 99°
2026-04-24 12:28 41.48329 44.89940 6927 ft 283 kts 98°
2026-04-24 12:28 41.47982 44.92499 6637 ft 278 kts 98°
2026-04-24 12:28 41.47644 44.94986 6353 ft 273 kts 98°
2026-04-24 12:29 41.47314 44.97415 6063 ft 268 kts 98°
2026-04-24 12:29 41.46983 44.99850 5838 ft 260 kts 98°
2026-04-24 12:29 41.46668 45.02144 5775 ft 247 kts 98°
2026-04-24 12:29 41.46375 45.04337 5695 ft 234 kts 94°
2026-04-24 12:30 41.46541 45.06388 5567 ft 217 kts 62°
2026-04-24 12:30 41.47431 45.07961 5311 ft 211 kts 43°
2026-04-24 12:30 41.48455 45.09317 5041 ft 207 kts 43°
2026-04-24 12:30 41.49448 45.10667 4806 ft 203 kts 43°
2026-04-24 12:31 41.50438 45.12023 4577 ft 200 kts 41°
2026-04-24 12:31 41.51590 45.12814 4479 ft 182 kts
2026-04-24 12:31 41.52732 45.12499 4433 ft 162 kts 333°
2026-04-24 12:31 41.53613 45.11722 4421 ft 152 kts 322°
2026-04-24 12:32 41.54421 45.10826 4405 ft 152 kts 320°
2026-04-24 12:32 41.55180 45.09925 4326 ft 152 kts 319°
2026-04-24 12:32 41.55965 45.08959 4116 ft 151 kts 317°
2026-04-24 12:32 41.56731 45.07997 3923 ft 151 kts 317°
2026-04-24 12:33 41.57479 45.07052 3723 ft 150 kts 317°
2026-04-24 12:33 41.58230 45.06098 3563 ft 148 kts 316°
2026-04-24 12:33 41.58959 45.05173 3359 ft 144 kts 316°
2026-04-24 12:33 41.59666 45.04276 3165 ft 143 kts 315°
2026-04-24 12:34 41.60382 45.03370 2972 ft 142 kts 315°
2026-04-24 12:34 41.61087 45.02477 2784 ft 142 kts 316°
2026-04-24 12:34 41.61798 45.01577 2600 ft 141 kts 316°
2026-04-24 12:34 41.62509 45.00679 2416 ft 141 kts 316°
2026-04-24 12:35 41.63210 44.99793 2232 ft 141 kts 315°
2026-04-24 12:35 41.63920 44.98893 2046 ft 140 kts 317°
2026-04-24 12:35 41.64616 44.98007 1854 ft 140 kts 313°
2026-04-24 12:35 41.65306 44.97123 1689 ft 138 kts 316°
2026-04-24 12:36 41.65993 44.96260 1531 ft 137 kts 318°
2026-04-24 12:36 41.66584 44.95520 1538 ft 96 kts 318°
2026-04-24 12:36 41.66891 44.95129 1543 ft 33 kts 315°
2026-04-24 12:36 41.66950 44.95052 1544 ft 3 kts 308°
2026-04-24 12:37 41.66961 44.95041 1544 ft 1 kts 25°
2026-04-24 12:37 41.66959 44.95055 1544 ft 2 kts 118°
2026-04-24 12:37 41.66940 44.95081 1544 ft 4 kts 136°
2026-04-24 12:37 41.66910 44.95119 1544 ft 7 kts 136°
2026-04-24 12:38 41.66896 44.95180 1544 ft 7 kts 67°
2026-04-24 12:38 41.66934 44.95237 1547 ft 11 kts 45°
2026-04-24 12:38 41.66996 44.95317 1551 ft 13 kts 44°
2026-04-24 12:39 41.67224 44.95609 1572 ft 10 kts 47°
2026-04-24 12:39 41.67220 44.95683 1574 ft 9 kts 129°
2026-04-24 12:39 41.67170 44.95754 1573 ft 11 kts 133°
2026-04-24 12:40 41.67107 44.95842 1571 ft 14 kts 134°
2026-04-24 12:40 41.67051 44.95950 1572 ft 13 kts 123°
2026-04-24 12:40 41.66983 44.96048 1571 ft 15 kts 133°
2026-04-24 12:40 41.66904 44.96159 1568 ft 17 kts 133°
2026-04-24 12:41 41.66836 44.96253 1568 ft 11 kts 133°
2026-04-24 12:41 41.66782 44.96329 1568 ft 8 kts 133°
2026-04-24 12:41 41.66772 44.96374 1568 ft 4 kts 67°
2026-04-24 12:41 41.66785 44.96394 1569 ft 1 kts 44°
2026-04-24 12:42 41.66809 44.96423 1571 ft 5 kts 43°
2026-04-24 12:42 41.66821 44.96438 1572 ft 0 kts 43°